Location: Unspecified
(0.0000°N, 0.0000°E)
Time: 11:08:49
(UTC+00:00)

N. Korean satellite - Pass Details

Date: 20 March 2019
Orbit: 456 x 510 km, 97.2° (Epoch: 23 March)

Event Time Altitude Azimuth Distance (km) Brightness Sun altitude
Rises 05:39:51 0° 14° (NNE) 2,534 10.4 -7.0°
Reaches altitude 10° 05:41:54 10° 17° (NNE) 1,667 9.5 -6.4°
Maximum altitude 05:45:28 70° 101° (E) 526 7.0 -5.5°
Drops below altitude 10° 05:49:07 10° 185° (S) 1,704 9.3 -4.6°
Sets 05:51:14 0° 187° (S) 2,598 10.2 -4.1°
